Location: Palomar Mountain Lodge
(33.3110°N, 116.8495°W)
Time: 12:43:43
(UTC-07:00)

Terra - Pass Details

Date: 14 June 2018
Orbit: 701 x 703 km, 98.2° (Epoch: 25 June)

Event Time Altitude Azimuth Distance (km) Brightness Sun altitude
Exits shadow 21:47:36 16° 77° (ENE) 1,785 3.6 -19.0°
Maximum altitude 21:48:16 17° 67° (ENE) 1,763 3.7 -19.1°
Drops below altitude 10° 21:51:11 10° 29° (NNE) 2,168 4.6 -19.5°
Sets 21:54:11 0° 9° (N) 3,090 5.7 -19.9°
